Ana Sayfa
METAR-TAF:

METAR-TAF

Havaalanları :

Winchester Regional Airport

Winchester, Virginia, Amerika Birleşik Devletleri

Enlem: 39-09N, Boylam: 078-09W, yükseklik: 222 m

Güncel hava durumu gözlemi

Rapor saat 11:35 UTC de 14 dakika önce yapıldı.
Rüzgar batı/kuzeybatıdan 7 kt
Sıcaklık -1°C
Nem 64%
Basınç 1026 hPa
Görüş mesafesi: 16.1 km
Açık gökyüzü

METAR: KOKV 111135Z AUTO 30007KT 10SM CLR M01/M07 A3029 RMK AO2

Saat: 06:49 (11:49 UTC)


TAF: eksik

4.000'den fazla havaalanı için hava durumu gözlemleri ve tahminleri (METAR ve TAF raporları).

Kullanılabilir istasyonlar harita üzerinde sarı ve kırmızı noktalarla gösterilir.

İstasyonun adını görmek için fareyi noktanın üzerinde gezdirin.

Sonrasında hava gözlem ve tahminlerini görmek için tıklayın.

Haritayı değiştirmek için: yaklaştırmak için siyah artı işaretli yeşil düğmeye ve uzaklaştırmak için de eksi işaretli düğmeye hızla tıklayın; bitişik haritalar için yeşil okları kullanın.


METAR-TAF: